Weather in Naydenovka

Russia / Republic of Crimea     45°16′20″N   34°27′01″E
temp.,
°C
wind,
m/s
gust,
m/s
humid.,
%
clouds,
%
prec.,
mm/h
press.,
hPa
HPBL,
m
19 september, sun
sun1900:00+17s33765 0.0 101050
03:00+19s247178 0.1 1009100
06:00+17s338098 0.8 100939
09:00+18s268299 2.6 1009182
12:00+20wnw4576100 1.0 1009358
15:00+24wnw45530 1.6 10091263
18:00+22w784733 0.0 1009759
21:00+18wsw59700 0.0 1010357
20 september, mon
mon2000:00+16sw4107546 0.0 1011202
03:00+17wsw5107578 0.0 1012308
06:00+13wnw23900 0.0 101245
09:00+17wnw12624 0.0 1012346
12:00+24nw46416 0.0 10121587
15:00+26w68338 0.0 10112519
18:00+23nw354233 0.0 1012533
21:00+17ene346599 0.0 1014193
21 september, tue
tue2100:00+17ne235985 0.0 1014183
03:00+14nnw3577100 0.8 1015273
06:00+13n2386100 1.6 1015264
09:00+14nw2373100 1.8 1016483
12:00+16nw44574 0.0 1017950
15:00+20wnw674056 0.0 10161809
18:00+17wnw67446 0.0 10171370
21:00+12w59564 0.0 1019321
22 september, wed
wed2200:00+9nw36572 0.0 1020197
03:00+8w34617 0.0 102080
06:00+7w226712 0.0 102037
09:00+10wnw236299 0.0 1019469
12:00+11nnw3456100 0.0 1019680
15:00+13nw344985 0.0 10181234
18:00+12nw345192 0.0 1018626
21:00+9wnw1263100 0.0 101711
23 september, thu
thu2300:00+9se1167100 0.0 101610
03:00+9se1167100 0.0 101510
06:00+7n0172100 0.0 101510
09:00+11n3451100 0.0 1014517
12:00+15nne4541100 0.0 10131453
15:00+14n6644100 0.0 10121306
18:00+13nne2342100 0.0 1013295
21:00+10nw4958100 0.0 1014332